This demonstration page uses our WeatherBlox Daily Observations layout. Learn more.

Left ArrowRight Arrow

39.92423, -83.80882

Hourly Observations for February 10, 2016

Temp ( °F °C ) Dew Point ( °F °C ) Humidity (%) Winds ( mph kmh ) Pressure ( in mb ) Visibility ( mi km ) Precip ( " mm )
12:56 am 00:56 Cloudy 16 -8.8 11 -11.6 80 80 WSW 12 19 29.91 1013 10 16 N/A
1:56 am 01:56 Cloudy 14 -10 9 -12.7 81 81 WSW 13 20 29.91 1013 10 16 N/A
2:56 am 02:56 Cloudy with Light Snow 14 -10 8 -13.3 77 77 WSW 15 24 29.91 1013 10 16 N/A
3:56 am 03:56 Cloudy with Light Snow 14 -10 9 -12.7 81 81 WSW 13 20 29.91 1013 9 14 N/A
4:56 am 04:56 Mostly Cloudy with Light Snow 14 -10 10 -12.2 84 84 WSW 13 20 29.92 1013 4 6 N/A
5:04 am 05:04 Cloudy with Light Snow 14 -10 10 -12 85 85 WSW 13 20 29.97 1015 4 6 N/A
5:27 am 05:27 Cloudy with Light Snow 14 -10 10 -12 85 85 WSW 14 22 29.97 1015 3 5 N/A
5:36 am 05:36 Cloudy with Light Snow 14 -10 10 -12 85 85 WSW 14 22 29.97 1015 2 3 N/A
5:56 am 05:56 Cloudy with Light Snow 14 -10 11 -11.6 88 88 WSW 13 20 29.93 1014 3 5 N/A
6:56 am 06:56 Cloudy with Light Snow 14 -10 11 -11.6 88 88 WSW 15 24 29.94 1014 3 5 N/A
7:36 am 07:36 Cloudy with Light Snow 14 -10 10 -12 85 85 WSW 14 22 30.00 1016 2 3 N/A
7:56 am 07:56 Cloudy with Light Snow 14 -10 11 -11.6 88 88 WSW 13 20 29.95 1014 2 3 N/A
8:06 am 08:06 Cloudy with Light Snow 14 -10 10 -12 85 85 WSW 17 28 30.00 1016 2 3 N/A
8:12 am 08:12 Mostly Cloudy with Light Snow 14 -10 10 -12 85 85 WSW 17 28 30.00 1016 2 2 N/A
8:18 am 08:18 Cloudy with Light Snow 14 -10 10 -12 85 85 W 17 28 30.00 1016 1 2 N/A
8:37 am 08:37 Cloudy with Light Snow 14 -10 10 -12 85 85 W 16 26 30.00 1016 2 3 N/A
8:44 am 08:44 Cloudy with Light Snow 14 -10 10 -12 85 85 W 14 22 30.00 1016 2 3 N/A
8:56 am 08:56 Windy with Snow Likely 14 -10 11 -11.6 88 88 WSW 20 31 29.96 1015 2 2 N/A
9:37 am 09:37 Cloudy with Light Snow 14 -10 10 -12 85 85 WSW 13 20 30.03 1017 1 2 N/A
9:47 am 09:47 Cloudy with Light Snow 14 -10 10 -12 85 85 WSW 16 26 30.03 1017 2 3 N/A
9:56 am 09:56 Cloudy with Light Snow 14 -10 10 -12.2 84 84 WSW 15 24 29.98 1015 3 5 N/A
10:15 am 10:15 Cloudy with Light Snow 16 -9 10 -12 79 79 WSW 16 26 30.03 1017 2 3 N/A
10:24 am 10:24 Cloudy with Light Snow 16 -9 10 -12 79 79 WSW 14 22 30.03 1017 3 4 N/A
10:56 am 10:56 Cloudy with Light Snow 16 -8.8 11 -11.6 80 80 WSW 15 24 30.00 1016 2 3 N/A
11:20 am 11:20 Cloudy with Light Snow 16 -9 10 -12 79 79 WSW 18 30 30.03 1017 3 5 N/A
11:44 am 11:44 Cloudy with Light Snow 16 -9 10 -12 79 79 W 18 30 30.06 1018 3 5 N/A
11:56 am 11:56 Cloudy with Light Snow 17 -8.3 11 -11.6 77 77 W 15 24 30.01 1016 3 5 N/A
12:02 pm 12:02 Cloudy with Light Snow 18 -8 12 -11 79 79 WSW 15 24 30.06 1018 3 5 N/A
12:08 pm 12:08 Cloudy with Light Snow 18 -8 12 -11 79 79 W 17 28 30.06 1018 2 3 N/A
12:15 pm 12:15 Windy with Snow Likely 18 -8 10 -12 73 73 WSW 20 31 30.06 1018 3 4 N/A
12:30 pm 12:30 Cloudy with Light Snow 18 -8 12 -11 79 79 WSW 16 26 30.06 1018 2 3 N/A
12:42 pm 12:42 Cloudy with Light Snow 18 -8 12 -11 79 79 WSW 16 26 30.06 1018 1 2 N/A
12:45 pm 12:45 Cloudy with Light Snow 18 -8 12 -11 79 79 WSW 15 24 30.06 1018 2 3 N/A
12:56 pm 12:56 Cloudy with Light Snow 17 -8.3 12 -11.1 80 80 WSW 17 28 30.01 1016 3 4 N/A
1:03 pm 13:03 Windy with Snow Likely 18 -8 12 -11 79 79 WSW 20 31 30.06 1018 2 3 N/A
1:06 pm 13:06 Cloudy with Light Snow 18 -8 12 -11 79 79 WSW 18 30 30.06 1018 1 2 N/A
1:15 pm 13:15 Cloudy with Light Snow 18 -8 12 -11 79 79 WSW 17 28 30.06 1018 2 2 N/A
1:24 pm 13:24 Cloudy with Light Snow 18 -8 12 -11 79 79 WSW 17 28 30.06 1018 1 2 N/A
1:37 pm 13:37 Cloudy with Light Snow 18 -8 12 -11 79 79 WSW 16 26 30.06 1018 1 2 N/A
1:44 pm 13:44 Cloudy with Light Snow 18 -8 12 -11 79 79 W 17 28 30.06 1018 2 2 N/A
1:56 pm 13:56 Cloudy with Light Snow 17 -8.3 11 -11.6 77 77 W 18 30 30.01 1016 2 3 N/A
2:04 pm 14:04 Cloudy with Light Snow 18 -8 10 -12 73 73 W 15 24 30.06 1018 5 8 N/A
2:24 pm 14:24 Cloudy with Light Snow 16 -9 10 -12 79 79 WSW 18 30 30.06 1018 2 3 N/A
2:35 pm 14:35 Cloudy with Haze 18 -8 9 -13 68 68 W 17 28 30.06 1018 3 5 N/A
2:56 pm 14:56 Cloudy with Haze 17 -8.3 9 -12.7 71 71 W 18 30 30.02 1017 4 6 N/A
3:56 pm 15:56 Cloudy 16 -8.8 9 -12.7 74 74 WSW 17 28 30.02 1017 10 16 N/A
4:56 pm 16:56 Windy with Snow Likely 15 -9.4 6 -14.4 67 67 W 20 31 30.05 1018 9 14 N/A
5:13 pm 17:13 Cloudy with Light Snow 14 -10 7 -14 73 73 WSW 17 28 30.09 1019 4 6 N/A
5:56 pm 17:56 Cloudy with Light Snow 14 -10 8 -13.3 77 77 WSW 16 26 30.07 1018 10 16 N/A
6:56 pm 18:56 Cloudy 14 -10 8 -13.3 77 77 WSW 13 20 30.10 1019 10 16 N/A
7:56 pm 19:56 Cloudy 13 -10.5 7 -13.8 77 77 WSW 15 24 30.11 1020 10 16 N/A
8:56 pm 20:56 Mostly Clear 11 -11.6 4 -15.5 73 73 WSW 14 22 30.13 1020 10 16 N/A
9:56 pm 21:56 Clear 10 -12.2 3 -16.1 73 73 W 10 17 30.15 1021 10 16 N/A
10:56 pm 22:56 Clear 10 -12.2 2 -16.6 70 70 W 10 17 30.15 1021 10 16 N/A
11:56 pm 23:56 Clear 8 -13.3 1 -17.2 73 73 WSW 7 11 30.16 1021 10 16 N/A

Powered by AerisWeather